| time (UTC) | temp C | wind direction | speed KPH | gust KPH | rain 1hr cm | rain 24hr cm | rain mn cm | humidity % | barometer mb |
| 20260505140545 | 13 | 181 | 1.6 | 4.8 | 0.00 | 0.00 | 0.00 | 85 | 1017.1 |
| 20260505140111 | 13 | 243 | 0.0 | 4.8 | 0.00 | 0.00 | 0.00 | 85 | 1017.0 |
| 20260505124607 | 13 | 224 | 1.6 | 3.2 | 0.00 | 0.00 | 0.00 | 85 | 1016.3 |
| 20260505124046 | 13 | 238 | 1.6 | 3.2 | 0.00 | 0.00 | 0.00 | 85 | 1016.3 |
| 20260505123546 | 13 | 217 | 0.0 | 3.2 | 0.00 | 0.00 | 0.00 | 86 | 1016.2 |
| 20260505123059 | 13 | 219 | 1.6 | 4.8 | 0.00 | 0.00 | 0.00 | 86 | 1016.2 |
| 20260505122547 | 13 | 193 | 1.6 | 4.8 | 0.00 | 0.00 | 0.00 | 86 | 1016.2 |
| 20260505122047 | 13 | 198 | 1.6 | 4.8 | 0.00 | 0.00 | 0.00 | 86 | 1016.2 |
| 20260505121559 | 13 | 186 | 1.6 | 4.8 | 0.00 | 0.00 | 0.00 | 86 | 1016.2 |
| 20260505121047 | 13 | 210 | 0.0 | 4.8 | 0.00 | 0.00 | 0.00 | 86 | 1016.0 |
| 20260505120547 | 13 | 178 | 1.6 | 3.2 | 0.00 | 0.00 | 0.00 | 86 | 1016.1 |
| 20260505120057 | 13 | 175 | 1.6 | 4.8 | 0.00 | 0.00 | 0.00 | 86 | 1016.1 |
| 20260505115545 | 13 | 221 | 1.6 | 4.8 | 0.00 | 0.00 | 0.00 | 86 | 1016.1 |
| 20260505115048 | 12 | 165 | 3.2 | 4.8 | 0.00 | 0.00 | 0.00 | 86 | 1016.1 |
| 20260505114600 | 12 | 186 | 1.6 | 4.8 | 0.00 | 0.00 | 0.00 | 86 | 1016.0 |
| 20260505114045 | 12 | 180 | 1.6 | 4.8 | 0.00 | 0.00 | 0.00 | 86 | 1016.0 |
| 20260505113547 | 12 | 186 | 0.0 | 4.8 | 0.00 | 0.00 | 0.00 | 86 | 1016.1 |
| 20260505113120 | 12 | 216 | 3.2 | 4.8 | 0.00 | 0.00 | 0.00 | 86 | 1015.9 |
| 20260505112545 | 12 | 185 | 1.6 | 4.8 | 0.00 | 0.00 | 0.00 | 86 | 1016.0 |
| 20260505112045 | 12 | 0 | 1.6 | 3.2 | 0.00 | 0.00 | 0.00 | 86 | 1016.0 |
| 20260505111557 | 12 | 178 | 0.0 | 1.6 | 0.00 | 0.00 | 0.00 | 86 | 1016.0 |
| 20260505111045 | 12 | 176 | 0.0 | 4.8 | 0.00 | 0.00 | 0.00 | 86 | 1016.0 |
| 20260505110546 | 12 | 201 | 1.6 | 6.4 | 0.00 | 0.00 | 0.00 | 87 | 1015.9 |
| 20260505102045 | 12 | 191 | 1.6 | 6.4 | 0.00 | 0.00 | 0.00 | 87 | 1015.6 |
| 20260505101554 | 12 | 0 | 1.6 | 8.0 | 0.00 | 0.00 | 0.00 | 87 | 1015.8 |
| 20260505101045 | 12 | 207 | 4.8 | 8.0 | 0.00 | 0.00 | 0.00 | 87 | 1015.6 |
| 20260505100546 | 12 | 176 | 1.6 | 9.7 | 0.00 | 0.00 | 0.00 | 87 | 1015.6 |
| 20260505100051 | 12 | 174 | 6.4 | 9.7 | 0.00 | 0.00 | 0.00 | 87 | 1015.6 |
| 20260505095547 | 12 | 231 | 1.6 | 4.8 | 0.00 | 0.00 | 0.00 | 87 | 1015.6 |
| 20260505095047 | 12 | 174 | 1.6 | 6.4 | 0.00 | 0.00 | 0.00 | 88 | 1015.5 |
| 20260505094557 | 12 | 231 | 1.6 | 6.4 | 0.00 | 0.00 | 0.00 | 88 | 1015.5 |
| 20260505094047 | 12 | 195 | 1.6 | 6.4 | 0.00 | 0.00 | 0.00 | 88 | 1015.5 |
| 20260505093547 | 12 | 0 | 1.6 | 4.8 | 0.00 | 0.00 | 0.00 | 88 | 1015.4 |
| 20260505093102 | 12 | 169 | 0.0 | 3.2 | 0.00 | 0.00 | 0.00 | 88 | 1015.4 |
| 20260505092547 | 12 | 218 | 1.6 | 8.0 | 0.00 | 0.00 | 0.00 | 88 | 1015.4 |
| 20260505092047 | 12 | 219 | 3.2 | 8.0 | 0.00 | 0.00 | 0.00 | 89 | 1015.4 |
| 20260505091603 | 12 | 243 | 1.6 | 3.2 | 0.00 | 0.00 | 0.00 | 90 | 1015.4 |
| 20260505091050 | 12 | 0 | 0.0 | 1.6 | 0.00 | 0.00 | 0.00 | 90 | 1015.4 |
| 20260505090546 | 11 | 213 | 0.0 | 3.2 | 0.00 | 0.00 | 0.00 | 90 | 1015.4 |
| 20260505090101 | 11 | 245 | 1.6 | 3.2 | 0.00 | 0.00 | 0.00 | 91 | 1015.3 |
| 20260505085546 | 11 | 188 | 0.0 | 1.6 | 0.00 | 0.00 | 0.00 | 91 | 1015.2 |
| 20260505085047 | 11 | 0 | 0.0 | 1.6 | 0.00 | 0.00 | 0.00 | 90 | 1015.2 |
| 20260505084556 | 11 | 166 | 0.0 | 1.6 | 0.00 | 0.00 | 0.00 | 90 | 1015.2 |
| 20260505084046 | 11 | 0 | 0.0 | 3.2 | 0.00 | 0.00 | 0.00 | 90 | 1015.2 |
| 20260505083546 | 11 | 189 | 0.0 | 3.2 | 0.00 | 0.00 | 0.00 | 90 | 1015.2 |
| 20260505083058 | 11 | 189 | 1.6 | 3.2 | 0.00 | 0.00 | 0.00 | 90 | 1015.3 |
| 20260505082545 | 11 | 0 | 0.0 | 0.0 | 0.00 | 0.00 | 0.00 | 90 | 1015.2 |
| 20260505082045 | 11 | 0 | 0.0 | 0.0 | 0.00 | 0.00 | 0.00 | 89 | 1015.2 |
| 20260505081604 | 11 | 0 | 0.0 | 0.0 | 0.00 | 0.00 | 0.00 | 89 | 1015.2 |
| 20260505081050 | 12 | 0 | 0.0 | 0.0 | 0.00 | 0.00 | 0.00 | 89 | 1015.3 |
| 20260505080547 | 12 | 0 | 0.0 | 1.6 | 0.00 | 0.00 | 0.00 | 88 | 1015.2 |
| 20260505080053 | 12 | 0 | 0.0 | 1.6 | 0.00 | 0.00 | 0.00 | 88 | 1015.1 |
| 20260505075548 | 12 | 159 | 0.0 | 1.6 | 0.00 | 0.00 | 0.00 | 88 | 1015.0 |
| 20260505075049 | 12 | 169 | 0.0 | 1.6 | 0.00 | 0.00 | 0.00 | 88 | 1015.0 |
| 20260505074553 | 12 | 0 | 0.0 | 1.6 | 0.00 | 0.00 | 0.00 | 87 | 1015.1 |
| 20260505074047 | 12 | 0 | 0.0 | 4.8 | 0.00 | 0.00 | 0.00 | 87 | 1014.9 |
| 20260505073547 | 12 | 139 | 1.6 | 4.8 | 0.00 | 0.00 | 0.00 | 87 | 1014.8 |
| 20260505073106 | 12 | 0 | 0.0 | 0.0 | 0.00 | 0.00 | 0.00 | 87 | 1014.7 |
| 20260505072548 | 12 | 0 | 0.0 | 4.8 | 0.00 | 0.00 | 0.00 | 87 | 1014.7 |
| 20260505072046 | 12 | 0 | 1.6 | 4.8 | 0.00 | 0.00 | 0.00 | 87 | 1014.6 |
| 20260505071559 | 12 | 182 | 1.6 | 4.8 | 0.00 | 0.00 | 0.00 | 86 | 1014.6 |
| 20260505071045 | 12 | 178 | 1.6 | 4.8 | 0.00 | 0.00 | 0.00 | 86 | 1014.5 |
| 20260505070550 | 12 | 154 | 3.2 | 4.8 | 0.00 | 0.00 | 0.00 | 86 | 1014.5 |
| 20260505070059 | 12 | 174 | 0.0 | 1.6 | 0.00 | 0.00 | 0.00 | 86 | 1014.4 |
| 20260505065549 | 12 | 179 | 0.0 | 1.6 | 0.00 | 0.00 | 0.00 | 86 | 1014.4 |
| 20260505065046 | 12 | 153 | 1.6 | 1.6 | 0.00 | 0.00 | 0.00 | 86 | 1014.3 |
| 20260505064552 | 12 | 150 | 0.0 | 1.6 | 0.00 | 0.00 | 0.00 | 85 | 1014.3 |
| 20260505064047 | 13 | 0 | 0.0 | 1.6 | 0.00 | 0.00 | 0.00 | 85 | 1014.3 |
| 20260505063548 | 13 | 169 | 0.0 | 1.6 | 0.00 | 0.00 | 0.00 | 85 | 1014.3 |
| 20260505063051 | 13 | 172 | 0.0 | 3.2 | 0.00 | 0.00 | 0.00 | 85 | 1014.2 |
| 20260505062549 | 13 | 181 | 0.0 | 3.2 | 0.00 | 0.00 | 0.00 | 84 | 1014.2 |
| 20260505062052 | 13 | 146 | 0.0 | 4.8 | 0.00 | 0.00 | 0.00 | 84 | 1014.2 |
| 20260505061552 | 13 | 0 | 0.0 | 4.8 | 0.00 | 0.00 | 0.00 | 84 | 1014.2 |
| 20260505061046 | 13 | 205 | 3.2 | 4.8 | 0.00 | 0.00 | 0.00 | 84 | 1014.0 |
| 20260505060547 | 13 | 173 | 1.6 | 3.2 | 0.00 | 0.00 | 0.00 | 83 | 1013.9 |
| 20260505060058 | 13 | 189 | 1.6 | 3.2 | 0.00 | 0.00 | 0.00 | 83 | 1013.8 |
| 20260505055551 | 13 | 179 | 1.6 | 3.2 | 0.00 | 0.00 | 0.00 | 83 | 1013.8 |
| 20260505055046 | 13 | 150 | 0.0 | 3.2 | 0.00 | 0.00 | 0.00 | 82 | 1013.7 |
| 20260505054558 | 13 | 181 | 1.6 | 3.2 | 0.00 | 0.00 | 0.00 | 82 | 1013.7 |
| 20260505054046 | 13 | 176 | 1.6 | 3.2 | 0.00 | 0.00 | 0.00 | 82 | 1013.7 |
| 20260505053547 | 14 | 176 | 0.0 | 3.2 | 0.00 | 0.00 | 0.00 | 81 | 1013.6 |
| 20260505053056 | 14 | 0 | 1.6 | 3.2 | 0.00 | 0.00 | 0.00 | 81 | 1013.5 |
| 20260505052545 | 14 | 191 | 0.0 | 8.0 | 0.00 | 0.00 | 0.00 | 80 | 1013.7 |
| 20260505052046 | 14 | 228 | 3.2 | 8.0 | 0.00 | 0.00 | 0.00 | 80 | 1013.6 |
| 20260505051605 | 15 | 169 | 1.6 | 6.4 | 0.00 | 0.00 | 0.00 | 79 | 1013.6 |
| 20260505051046 | 15 | 215 | 1.6 | 6.4 | 0.00 | 0.00 | 0.00 | 79 | 1013.4 |
| 20260505050548 | 15 | 172 | 3.2 | 6.4 | 0.00 | 0.00 | 0.00 | 79 | 1013.5 |
| 20260505050103 | 15 | 195 | 3.2 | 6.4 | 0.00 | 0.00 | 0.00 | 78 | 1013.5 |
| 20260505041557 | 16 | 210 | 1.6 | 3.2 | 0.00 | 0.00 | 0.00 | 73 | 1012.9 |
| 20260505041046 | 16 | 156 | 0.0 | 6.4 | 0.00 | 0.00 | 0.00 | 73 | 1012.7 |
| 20260505040546 | 17 | 0 | 0.0 | 6.4 | 0.00 | 0.00 | 0.00 | 72 | 1012.7 |
| 20260505040051 | 17 | 182 | 0.0 | 6.4 | 0.00 | 0.00 | 0.00 | 72 | 1012.7 |
| 20260505035547 | 17 | 181 | 3.2 | 6.4 | 0.00 | 0.00 | 0.00 | 71 | 1012.6 |
| 20260505035050 | 17 | 153 | 1.6 | 6.4 | 0.00 | 0.00 | 0.00 | 70 | 1012.5 |
| 20260505034556 | 17 | 257 | 1.6 | 6.4 | 0.00 | 0.00 | 0.00 | 70 | 1012.4 |
| 20260505034047 | 18 | 269 | 0.0 | 8.0 | 0.00 | 0.00 | 0.00 | 69 | 1012.3 |
| 20260505033547 | 18 | 175 | 1.6 | 8.0 | 0.00 | 0.00 | 0.00 | 68 | 1012.2 |
| 20260505033053 | 18 | 0 | 0.0 | 4.8 | 0.00 | 0.00 | 0.00 | 68 | 1012.1 |
| 20260505032547 | 18 | 221 | 0.0 | 8.0 | 0.00 | 0.00 | 0.00 | 67 | 1012.1 |
| 20260505032050 | 18 | 225 | 0.0 | 8.0 | 0.00 | 0.00 | 0.00 | 67 | 1012.0 |
| 20260505031557 | 19 | 226 | 3.2 | 8.0 | 0.00 | 0.00 | 0.00 | 66 | 1012.0 |
| 20260505031045 | 19 | 219 | 1.6 | 8.0 | 0.00 | 0.00 | 0.00 | 65 | 1011.9 |
| 20260505030549 | 20 | 0 | 3.2 | 9.7 | 0.00 | 0.00 | 0.00 | 65 | 1011.9 |
| 20260505030104 | 20 | 220 | 3.2 | 9.7 | 0.00 | 0.00 | 0.00 | 64 | 1011.8 |
| 20260505025547 | 20 | 222 | 3.2 | 9.7 | 0.00 | 0.00 | 0.00 | 63 | 1011.6 |
| 20260505025048 | 20 | 215 | 1.6 | 6.4 | 0.00 | 0.00 | 0.00 | 62 | 1011.6 |
| 20260505024603 | 21 | 216 | 0.0 | 6.4 | 0.00 | 0.00 | 0.00 | 62 | 1011.5 |
| 20260505024046 | 21 | 48 | 1.6 | 6.4 | 0.00 | 0.00 | 0.00 | 61 | 1011.5 |
| 20260505023546 | 21 | 60 | 1.6 | 6.4 | 0.00 | 0.00 | 0.00 | 60 | 1011.2 |
| 20260505023055 | 21 | 63 | 1.6 | 9.7 | 0.00 | 0.00 | 0.00 | 61 | 1011.2 |
| 20260505022547 | 21 | 328 | 1.6 | 9.7 | 0.00 | 0.00 | 0.00 | 59 | 1011.1 |
| 20260505022048 | 22 | 231 | 1.6 | 4.8 | 0.00 | 0.00 | 0.00 | 59 | 1011.0 |
| 20260505021551 | 22 | 328 | 1.6 | 11.3 | 0.00 | 0.00 | 0.00 | 57 | 1011.0 |
| 20260505021046 | 22 | 0 | 3.2 | 11.3 | 0.00 | 0.00 | 0.00 | 57 | 1011.0 |
| 20260505020548 | 23 | 243 | 4.8 | 11.3 | 0.00 | 0.00 | 0.00 | 54 | 1010.9 |
| 20260505020054 | 23 | 231 | 3.2 | 4.8 | 0.00 | 0.00 | 0.00 | 54 | 1010.9 |
| 20260505015548 | 24 | 44 | 0.0 | 6.4 | 0.00 | 0.00 | 0.00 | 54 | 1010.8 |
| 20260505015048 | 25 | 234 | 3.2 | 6.4 | 0.00 | 0.00 | 0.00 | 53 | 1010.7 |
| 20260505014554 | 25 | 259 | 3.2 | 4.8 | 0.00 | 0.00 | 0.00 | 53 | 1010.7 |
| 20260505014051 | 25 | 225 | 1.6 | 6.4 | 0.00 | 0.00 | 0.00 | 52 | 1010.7 |
| 20260505013547 | 25 | 243 | 3.2 | 6.4 | 0.00 | 0.00 | 0.00 | 52 | 1010.8 |
| 20260505013116 | 26 | 228 | 3.2 | 6.4 | 0.00 | 0.00 | 0.00 | 51 | 1010.8 |
| 20260505012549 | 26 | 0 | 0.0 | 4.8 | 0.00 | 0.00 | 0.00 | 51 | 1010.7 |
| 20260505012047 | 25 | 68 | 0.0 | 6.4 | 0.00 | 0.00 | 0.00 | 51 | 1010.8 |
| 20260505011613 | 26 | 253 | 1.6 | 6.4 | 0.00 | 0.00 | 0.00 | 51 | 1010.7 |
| 20260505011047 | 26 | 253 | 0.0 | 8.0 | 0.00 | 0.00 | 0.00 | 50 | 1010.8 |
| 20260505010548 | 26 | 8 | 3.2 | 8.0 | 0.00 | 0.00 | 0.00 | 51 | 1010.9 |
| 20260505005547 | 26 | 219 | 4.8 | 11.3 | 0.00 | 0.00 | 0.00 | 49 | 1011.0 |
| 20260505005048 | 26 | 224 | 4.8 | 8.0 | 0.00 | 0.00 | 0.00 | 48 | 1011.0 |
| 20260505004552 | 26 | 219 | 3.2 | 8.0 | 0.00 | 0.00 | 0.00 | 49 | 1011.0 |
| 20260505004046 | 26 | 231 | 1.6 | 6.4 | 0.00 | 0.00 | 0.00 | 49 | 1011.0 |
| 20260505003551 | 26 | 243 | 3.2 | 6.4 | 0.00 | 0.00 | 0.00 | 49 | 1011.0 |
| 20260505003057 | 26 | 211 | 0.0 | 9.7 | 0.00 | 0.00 | 0.00 | 52 | 1011.1 |
| 20260505002547 | 26 | 263 | 1.6 | 9.7 | 0.00 | 0.00 | 0.00 | 48 | 1011.1 |
| 20260505002048 | 26 | 236 | 4.8 | 9.7 | 0.00 | 0.00 | 0.00 | 48 | 1011.0 |
| 20260505001552 | 27 | 3 | 1.6 | 4.8 | 0.00 | 0.00 | 0.00 | 47 | 1011.1 |
| 20260505001046 | 27 | 233 | 1.6 | 3.2 | 0.00 | 0.00 | 0.00 | 48 | 1011.2 |
| 20260505000547 | 27 | 222 | 0.0 | 3.2 | 0.00 | 0.00 | 0.00 | 48 | 1011.2 |
| 20260505000059 | 26 | 342 | 1.6 | 4.8 | 0.00 | 0.00 | 0.00 | 49 | 1011.1 |
| 20260504235547 | 26 | 220 | 3.2 | 4.8 | 0.00 | 0.00 | 0.00 | 45 | 1011.2 |
| 20260504235047 | 27 | 246 | 1.6 | 6.4 | 0.00 | 0.00 | 0.00 | 47 | 1011.2 |
| 20260504234554 | 27 | 213 | 3.2 | 6.4 | 0.00 | 0.00 | 0.00 | 46 | 1011.2 |
| 20260504234048 | 27 | 242 | 3.2 | 6.4 | 0.00 | 0.00 | 0.00 | 45 | 1011.3 |
| 20260504233546 | 27 | 159 | 3.2 | 6.4 | 0.00 | 0.00 | 0.00 | 45 | 1011.2 |
| 20260504233101 | 27 | 230 | 1.6 | 8.0 | 0.00 | 0.00 | 0.00 | 45 | 1011.3 |
| 20260504232549 | 27 | 258 | 1.6 | 8.0 | 0.00 | 0.00 | 0.00 | 45 | 1011.4 |
| 20260504232046 | 27 | 45 | 1.6 | 6.4 | 0.00 | 0.00 | 0.00 | 44 | 1011.4 |
| 20260504231554 | 27 | 270 | 1.6 | 8.0 | 0.00 | 0.00 | 0.00 | 46 | 1011.5 |
| 20260504231047 | 27 | 244 | 3.2 | 8.0 | 0.00 | 0.00 | 0.00 | 44 | 1011.4 |
| 20260504230551 | 27 | 213 | 4.8 | 8.0 | 0.00 | 0.00 | 0.00 | 43 | 1011.5 |
| 20260504230100 | 27 | 236 | 1.6 | 6.4 | 0.00 | 0.00 | 0.00 | 41 | 1011.6 |
| 20260504225549 | 27 | 277 | 0.0 | 6.4 | 0.00 | 0.00 | 0.00 | 41 | 1011.7 |
| 20260504225047 | 27 | 233 | 4.8 | 6.4 | 0.00 | 0.00 | 0.00 | 43 | 1011.9 |
| 20260504224555 | 27 | 184 | 0.0 | 4.8 | 0.00 | 0.00 | 0.00 | 43 | 1011.8 |
| 20260504224046 | 27 | 233 | 1.6 | 6.4 | 0.00 | 0.00 | 0.00 | 44 | 1011.8 |
| 20260504223548 | 27 | 41 | 0.0 | 6.4 | 0.00 | 0.00 | 0.00 | 47 | 1011.8 |
| 20260504223100 | 26 | 243 | 3.2 | 6.4 | 0.00 | 0.00 | 0.00 | 45 | 1011.8 |
| 20260504222548 | 26 | 44 | 1.6 | 8.0 | 0.00 | 0.00 | 0.00 | 47 | 1011.9 |
| 20260504222046 | 27 | 51 | 1.6 | 8.0 | 0.00 | 0.00 | 0.00 | 49 | 1011.9 |
| 20260504221558 | 27 | 236 | 3.2 | 8.0 | 0.00 | 0.00 | 0.00 | 45 | 1012.0 |
| 20260504221048 | 27 | 129 | 0.0 | 6.4 | 0.00 | 0.00 | 0.00 | 44 | 1011.9 |
| 20260504220548 | 27 | 243 | 1.6 | 6.4 | 0.00 | 0.00 | 0.00 | 44 | 1012.0 |
| 20260504220052 | 27 | 257 | 1.6 | 4.8 | 0.00 | 0.00 | 0.00 | 45 | 1012.2 |
| 20260504215547 | 27 | 31 | 1.6 | 8.0 | 0.00 | 0.00 | 0.00 | 46 | 1012.1 |
| 20260504215046 | 26 | 0 | 1.6 | 8.0 | 0.00 | 0.00 | 0.00 | 47 | 1012.1 |
| 20260504214607 | 26 | 248 | 3.2 | 8.0 | 0.00 | 0.00 | 0.00 | 48 | 1012.2 |
| 20260504214047 | 27 | 60 | 1.6 | 8.0 | 0.00 | 0.00 | 0.00 | 47 | 1012.3 |
| 20260504213547 | 27 | 234 | 3.2 | 6.4 | 0.00 | 0.00 | 0.00 | 47 | 1012.3 |
| 20260504213121 | 27 | 209 | 3.2 | 9.7 | 0.00 | 0.00 | 0.00 | 51 | 1012.3 |
| 20260504212547 | 26 | 110 | 0.0 | 9.7 | 0.00 | 0.00 | 0.00 | 47 | 1012.3 |
| 20260504212046 | 26 | 229 | 3.2 | 8.0 | 0.00 | 0.00 | 0.00 | 47 | 1012.4 |
| 20260504211554 | 26 | 226 | 4.8 | 8.0 | 0.00 | 0.00 | 0.00 | 44 | 1012.4 |
| 20260504211048 | 26 | 197 | 1.6 | 8.0 | 0.00 | 0.00 | 0.00 | 44 | 1012.3 |
| 20260504210548 | 26 | 214 | 1.6 | 6.4 | 0.00 | 0.00 | 0.00 | 45 | 1012.4 |
| 20260504210058 | 26 | 310 | 1.6 | 6.4 | 0.00 | 0.00 | 0.00 | 44 | 1012.4 |
| 20260504205546 | 26 | 56 | 1.6 | 8.0 | 0.00 | 0.00 | 0.00 | 43 | 1012.4 |
| 20260504205047 | 26 | 251 | 1.6 | 8.0 | 0.00 | 0.00 | 0.00 | 47 | 1012.5 |
| 20260504204553 | 26 | 43 | 4.8 | 8.0 | 0.00 | 0.00 | 0.00 | 43 | 1012.4 |
| 20260504204047 | 26 | 217 | 3.2 | 8.0 | 0.00 | 0.00 | 0.00 | 44 | 1012.5 |
| 20260504203546 | 26 | 341 | 1.6 | 6.4 | 0.00 | 0.00 | 0.00 | 43 | 1012.5 |
| 20260504203104 | 26 | 214 | 1.6 | 8.0 | 0.00 | 0.00 | 0.00 | 44 | 1012.5 |
| 20260504202547 | 26 | 98 | 1.6 | 8.0 | 0.00 | 0.00 | 0.00 | 43 | 1012.5 |
| 20260504202047 | 26 | 262 | 1.6 | 6.4 | 0.00 | 0.00 | 0.00 | 42 | 1012.5 |
| 20260504201618 | 26 | 233 | 3.2 | 6.4 | 0.00 | 0.00 | 0.00 | 44 | 1012.5 |
| 20260504201051 | 26 | 222 | 3.2 | 6.4 | 0.00 | 0.00 | 0.00 | 43 | 1012.7 |
| 20260504200547 | 25 | 68 | 1.6 | 6.4 | 0.00 | 0.00 | 0.00 | 47 | 1012.8 |
| 20260504200057 | 25 | 40 | 1.6 | 8.0 | 0.00 | 0.00 | 0.00 | 46 | 1012.8 |
| 20260504195545 | 25 | 69 | 4.8 | 8.0 | 0.00 | 0.00 | 0.00 | 44 | 1012.7 |
| 20260504195048 | 26 | 210 | 1.6 | 4.8 | 0.00 | 0.00 | 0.00 | 47 | 1012.8 |
| 20260504194602 | 25 | 142 | 3.2 | 6.4 | 0.00 | 0.00 | 0.00 | 44 | 1012.8 |
| 20260504194048 | 25 | 259 | 3.2 | 6.4 | 0.00 | 0.00 | 0.00 | 44 | 1013.0 |
| 20260504193547 | 26 | 238 | 3.2 | 6.4 | 0.00 | 0.00 | 0.00 | 44 | 1012.9 |
| 20260504193102 | 26 | 183 | 1.6 | 11.3 | 0.00 | 0.00 | 0.00 | 46 | 1012.9 |
| 20260504192547 | 25 | 0 | 1.6 | 11.3 | 0.00 | 0.00 | 0.00 | 47 | 1012.8 |
| 20260504192051 | 25 | 237 | 3.2 | 6.4 | 0.00 | 0.00 | 0.00 | 49 | 1012.9 |
| 20260504191604 | 24 | 125 | 3.2 | 6.4 | 0.00 | 0.00 | 0.00 | 47 | 1013.0 |
| 20260504191048 | 25 | 265 | 1.6 | 6.4 | 0.00 | 0.00 | 0.00 | 45 | 1013.1 |
| 20260504190548 | 24 | 248 | 3.2 | 8.0 | 0.00 | 0.00 | 0.00 | 45 | 1013.1 |
| 20260504190112 | 25 | 226 | 3.2 | 8.0 | 0.00 | 0.00 | 0.00 | 46 | 1013.1 |
| 20260504185549 | 25 | 244 | 1.6 | 6.4 | 0.00 | 0.00 | 0.00 | 49 | 1013.2 |
| 20260504185045 | 25 | 248 | 1.6 | 3.2 | 0.00 | 0.00 | 0.00 | 48 | 1013.1 |
| 20260504184613 | 25 | 210 | 0.0 | 6.4 | 0.00 | 0.00 | 0.00 | 49 | 1013.2 |
| 20260504184046 | 24 | 256 | 3.2 | 6.4 | 0.00 | 0.00 | 0.00 | 48 | 1013.1 |
| 20260504183547 | 25 | 76 | 0.0 | 3.2 | 0.00 | 0.00 | 0.00 | 52 | 1013.3 |
| 20260504183056 | 24 | 159 | 1.6 | 4.8 | 0.00 | 0.00 | 0.00 | 56 | 1013.3 |
| 20260504182546 | 24 | 34 | 1.6 | 4.8 | 0.00 | 0.00 | 0.00 | 51 | 1013.4 |
| 20260504182047 | 23 | 238 | 0.0 | 6.4 | 0.00 | 0.00 | 0.00 | 53 | 1013.4 |
| 20260504181558 | 23 | 183 | 1.6 | 8.0 | 0.00 | 0.00 | 0.00 | 54 | 1013.5 |
| 20260504181047 | 23 | 250 | 3.2 | 8.0 | 0.00 | 0.00 | 0.00 | 53 | 1013.4 |
| 20260504180547 | 23 | 258 | 1.6 | 8.0 | 0.00 | 0.00 | 0.00 | 53 | 1013.4 |
| 20260504180059 | 23 | 283 | 1.6 | 6.4 | 0.00 | 0.00 | 0.00 | 56 | 1013.3 |
| 20260504175546 | 23 | 205 | 1.6 | 9.7 | 0.00 | 0.00 | 0.00 | 56 | 1013.2 |
| 20260504175047 | 22 | 236 | 1.6 | 9.7 | 0.00 | 0.00 | 0.00 | 55 | 1013.2 |
| 20260504174554 | 22 | 225 | 3.2 | 9.7 | 0.00 | 0.00 | 0.00 | 55 | 1013.2 |
| 20260504174047 | 22 | 11 | 0.0 | 6.4 | 0.00 | 0.00 | 0.00 | 56 | 1013.2 |
| 20260504173549 | 22 | 229 | 1.6 | 6.4 | 0.00 | 0.00 | 0.00 | 55 | 1013.3 |
| 20260504173057 | 21 | 252 | 3.2 | 6.4 | 0.00 | 0.00 | 0.00 | 56 | 1013.1 |
| 20260504172547 | 21 | 215 | 0.0 | 4.8 | 0.00 | 0.00 | 0.00 | 60 | 1013.2 |
| 20260504172048 | 21 | 235 | 0.0 | 4.8 | 0.00 | 0.00 | 0.00 | 60 | 1013.2 |
| 20260504171557 | 21 | 236 | 1.6 | 4.8 | 0.00 | 0.00 | 0.00 | 61 | 1013.2 |
| 20260504171047 | 21 | 236 | 1.6 | 4.8 | 0.00 | 0.00 | 0.00 | 60 | 1013.2 |
| 20260504170547 | 20 | 0 | 0.0 | 4.8 | 0.00 | 0.00 | 0.00 | 59 | 1013.2 |
| 20260504151047 | 14 | 182 | 1.6 | 4.8 | 0.00 | 0.00 | 0.00 | 81 | 1012.7 |
| 20260504150548 | 14 | 156 | 1.6 | 4.8 | 0.00 | 0.00 | 0.00 | 83 | 1012.7 |